Voltar ao catálogo

THORAD AGENA D DEB

AtivoPO
NORAD 4658·DEBRIS·🇺🇸 United States

Lançado Apr 8, 1970 de Vandenberg Space Force Base

Loading…

Próximas Passagens (próximas 24 horas)

TLE

AtualizadoSource: Space-Track

Época: Sep 14, 2026, 03:48 UTC

1 04658U 70025AS  26257.15837721  .00001424  00000-0  10093-2 0  9999
2 04658  99.9458 235.3670 0025371 325.3507  34.6000 13.99494495830841

Acompanhe THORAD AGENA D DEB em tempo real com AllMySat

Download on the App Store